EW8129 Weather Reports


Display with metric or nautical units.
time (UTC)temp
F
wind
direction
speed
MPH
gust
MPH
rain 1hr
in
rain 24hr
in
rain mn
in
humidity
%
barometer
mb
20260507024903 45 245 4.0 9.0 0.00 0.00 0.00 40 1011.8
20260507024403 45 227 1.0 6.0 0.00 0.00 0.00 40 1011.7
20260507023903 45 218 1.0 7.0 0.00 0.00 0.00 40 1011.6
20260507023403 45 224 0.0 2.0 0.00 0.00 0.00 40 1011.6
20260507022904 45 257 0.0 0.0 0.00 0.00 0.00 42 1011.6
20260507021903 45 250 3.0 8.0 0.00 0.00 0.00 41 1011.6
20260507020404 45 173 0.0 3.0 0.00 0.00 0.00 42 1011.6
20260507015903 45 157 0.0 1.0 0.00 0.00 0.00 42 1011.6
20260507015403 45 157 0.0 2.0 0.00 0.00 0.00 43 1011.6
20260507014903 45 179 0.0 7.0 0.00 0.00 0.00 43 1011.6
20260507014403 45 189 0.0 5.0 0.00 0.00 0.00 44 1011.6
20260507013904 44 272 1.0 7.0 0.00 0.00 0.00 42 1011.5
20260507013403 44 172 0.0 3.0 0.00 0.00 0.00 44 1011.6
20260507012903 44 210 1.0 7.0 0.00 0.00 0.00 43 1011.5
20260507011903 45 198 3.0 7.0 0.00 0.00 0.00 43 1011.5
20260507011403 45 203 0.0 5.0 0.00 0.00 0.00 42 1011.5
20260507010904 45 246 3.0 7.0 0.00 0.00 0.00 42 1011.5
20260507010404 46 252 1.0 9.0 0.00 0.00 0.00 42 1011.5
20260507005904 46 201 1.0 6.0 0.00 0.00 0.00 41 1011.4
20260507005404 46 225 5.0 8.0 0.00 0.00 0.00 42 1011.4
20260507004903 46 258 3.0 8.0 0.00 0.00 0.00 42 1011.3
20260507004404 46 169 0.0 3.0 0.00 0.00 0.00 42 1011.3
20260507003903 46 211 0.0 5.0 0.00 0.00 0.00 42 1011.4
20260507003404 46 234 1.0 7.0 0.00 0.00 0.00 44 1011.3
20260507002903 45 177 0.0 5.0 0.00 0.00 0.00 43 1011.3
20260507002403 46 198 1.0 6.0 0.00 0.00 0.00 42 1011.3
20260507001904 46 205 0.0 3.0 0.00 0.00 0.00 43 1011.3
20260507001403 45 244 1.0 9.0 0.00 0.00 0.00 43 1011.3
20260507000405 45 236 0.0 5.0 0.00 0.00 0.00 43 1011.3
20260506235904 45 235 1.0 5.0 0.00 0.00 0.00 43 1011.3
20260506235404 45 202 1.0 3.0 0.00 0.00 0.00 43 1011.3
20260506233404 45 237 1.0 7.0 0.00 0.00 0.00 44 1011.3
20260506232904 45 233 1.0 8.0 0.00 0.00 0.00 45 1011.2
20260506232404 45 218 1.0 3.0 0.00 0.00 0.00 44 1011.1
20260506231904 45 237 3.0 6.0 0.00 0.00 0.00 43 1011.2
20260506231404 46 273 2.0 8.0 0.00 0.00 0.00 43 1011.3
20260506230904 45 288 2.0 9.0 0.00 0.00 0.00 44 1011.2
20260506230403 45 260 3.0 8.0 0.00 0.00 0.00 43 1011.2
20260506225903 45 228 3.0 10.0 0.00 0.00 0.00 42 1011.2
20260506225403 46 237 2.0 8.0 0.00 0.00 0.00 44 1011.2
20260506224904 46 234 1.0 2.0 0.00 0.00 0.00 44 1011.2
20260506223904 45 189 0.0 1.0 0.00 0.00 0.00 44 1011.1
20260506223403 45 157 0.0 5.0 0.00 0.00 0.00 46 1011.2
20260506222904 45 240 1.0 7.0 0.00 0.00 0.00 45 1011.2
20260506222404 45 167 0.0 3.0 0.00 0.00 0.00 43 1011.2
20260506221904 45 230 2.0 7.0 0.00 0.00 0.00 45 1011.2
20260506221403 45 263 2.0 8.0 0.00 0.00 0.00 46 1011.2
20260506220904 45 299 2.0 5.0 0.00 0.00 0.00 45 1011.2
20260506220403 45 209 2.0 7.0 0.00 0.00 0.00 45 1011.1
20260506215903 45 203 2.0 5.0 0.00 0.00 0.00 47 1011.2
20260506215403 44 220 1.0 6.0 0.00 0.00 0.00 48 1011.3
20260506214904 44 286 4.0 8.0 0.00 0.00 0.00 49 1011.2
20260506214404 43 280 3.0 8.0 0.00 0.00 0.00 50 1011.2
20260506213904 43 248 1.0 7.0 0.00 0.00 0.00 50 1011.2
20260506213404 43 292 2.0 7.0 0.00 0.00 0.00 51 1011.2
20260506212903 42 228 1.0 5.0 0.00 0.00 0.00 51 1011.2
20260506212403 42 178 1.0 7.0 0.00 0.00 0.00 51 1011.3
20260506211903 42 261 3.0 10.0 0.00 0.00 0.00 50 1011.2
20260506211403 43 271 4.0 8.0 0.00 0.00 0.00 50 1011.2
20260506210904 43 224 1.0 8.0 0.00 0.00 0.00 52 1011.1
20260506210404 42 258 4.0 12.0 0.00 0.00 0.00 50 1011.1
20260506205904 43 256 3.0 8.0 0.00 0.00 0.00 50 1011.1
20260506205404 42 209 3.0 9.0 0.00 0.00 0.00 55 1011.1
20260506204904 42 222 3.0 7.0 0.00 0.00 0.00 54 1011.0
20260506204403 42 207 3.0 6.0 0.00 0.00 0.00 53 1011.1
20260506203904 42 199 1.0 6.0 0.00 0.00 0.00 57 1011.1
20260506203404 41 228 1.0 7.0 0.00 0.00 0.00 57 1011.1
20260506202903 41 240 5.0 8.0 0.00 0.00 0.00 57 1011.2
20260506202404 41 178 1.0 9.0 0.00 0.00 0.00 59 1011.1
20260506201903 41 205 2.0 8.0 0.00 0.00 0.00 58 1011.1
20260506201403 41 282 3.0 7.0 0.00 0.00 0.00 60 1011.1
20260506200404 41 277 2.0 6.0 0.00 0.00 0.00 61 1011.1
20260506195404 40 246 3.0 9.0 0.00 0.00 0.00 63 1011.0
20260506194904 40 272 1.0 6.0 0.00 0.00 0.00 66 1011.1
20260506194404 40 240 2.0 8.0 0.00 0.00 0.00 66 1011.0
20260506193903 40 182 2.0 8.0 0.00 0.00 0.00 66 1011.0
20260506193404 40 261 3.0 12.0 0.00 0.00 0.00 69 1010.9
20260506192903 40 250 3.0 7.0 0.00 0.00 0.00 69 1010.9
20260506192404 39 241 4.0 8.0 0.00 0.00 0.00 69 1010.9
20260506191904 39 277 5.0 8.0 0.00 0.00 0.00 70 1010.9
20260506191404 39 234 3.0 6.0 0.00 0.00 0.00 72 1010.9
20260506190904 39 220 3.0 7.0 0.00 0.00 0.00 75 1010.9
20260506185904 39 216 0.0 2.0 0.00 0.00 0.00 78 1010.8
20260506185403 38 204 2.0 3.0 0.00 0.00 0.00 77 1010.8
20260506184904 38 230 1.0 3.0 0.00 0.00 0.00 80 1010.7
20260506184404 38 202 2.0 5.0 0.00 0.00 0.00 80 1010.7
20260506183903 38 202 2.0 5.0 0.00 0.00 0.00 80 1010.7
20260506183403 38 209 2.0 3.0 0.00 0.00 0.00 81 1010.7
20260506182403 38 199 0.0 3.0 0.00 0.00 0.00 82 1010.7
20260506181904 38 217 2.0 5.0 0.00 0.00 0.00 83 1010.6
20260506181420 38 208 1.0 6.0 0.00 0.00 0.00 83 1010.6
20260506180904 38 215 0.0 7.0 0.00 0.00 0.00 84 1010.6
20260506180404 37 246 3.0 6.0 0.00 0.00 0.00 83 1010.6
20260506175904 37 211 0.0 10.0 0.00 0.00 0.00 84 1010.5
20260506175404 37 270 2.0 6.0 0.00 0.00 0.00 84 1010.5
20260506174903 37 244 2.0 6.0 0.00 0.00 0.00 85 1010.4
20260506174404 37 189 0.0 3.0 0.00 0.00 0.00 86 1010.4
20260506173904 37 222 2.0 6.0 0.00 0.00 0.00 85 1010.4
20260506173404 37 217 0.0 7.0 0.00 0.00 0.00 85 1010.3
20260506172904 37 262 2.0 7.0 0.00 0.00 0.00 86 1010.3
20260506172404 36 236 2.0 7.0 0.00 0.00 0.00 86 1010.3
20260506171904 37 199 0.0 2.0 0.00 0.00 0.00 86 1010.2
20260506171403 37 239 1.0 7.0 0.00 0.00 0.00 86 1010.2
20260506170904 37 189 0.0 0.0 0.00 0.00 0.00 86 1010.2
20260506170404 37 189 1.0 7.0 0.00 0.00 0.00 86 1010.1
20260506165404 37 214 2.0 7.0 0.00 0.00 0.00 86 1010.1
20260506164904 37 224 0.0 3.0 0.00 0.00 0.00 86 1010.1
20260506164404 37 220 2.0 5.0 0.00 0.00 0.00 86 1010.0
20260506163904 37 226 0.0 3.0 0.00 0.00 0.00 86 1010.0
20260506163403 36 216 1.0 5.0 0.00 0.00 0.00 86 1009.9
20260506162903 36 217 2.0 3.0 0.00 0.00 0.00 86 1009.9
20260506161904 37 260 1.0 2.0 0.00 0.00 0.00 86 1009.8
20260506161404 36 198 0.0 5.0 0.00 0.00 0.00 86 1009.8
20260506160903 36 222 1.0 3.0 0.00 0.00 0.00 86 1009.7
20260506160403 37 176 0.0 1.0 0.00 0.00 0.00 87 1009.6
20260506155903 36 206 1.0 6.0 0.00 0.00 0.00 87 1009.6
20260506155403 36 172 0.0 0.0 0.00 0.00 0.00 87 1009.6
20260506154404 36 172 1.0 3.0 0.00 0.00 0.00 87 1009.5
20260506153904 36 177 1.0 2.0 0.00 0.00 0.00 87 1009.5
20260506153404 36 213 0.0 0.0 0.00 0.00 0.00 87 1009.5
20260506152404 36 186 1.0 3.0 0.00 0.00 0.00 87 1009.3
20260506151404 36 210 2.0 6.0 0.00 0.00 0.00 86 1009.2
20260506150903 36 186 1.0 3.0 0.00 0.00 0.00 86 1009.1
20260506145904 36 221 3.0 8.0 0.00 0.00 0.00 86 1009.0
20260506145404 37 234 1.0 5.0 0.00 0.00 0.00 86 1009.0
20260506144903 37 230 1.0 5.0 0.00 0.00 0.00 86 1008.9
20260506144404 37 181 2.0 5.0 0.00 0.00 0.00 86 1008.8
20260506143903 37 212 1.0 2.0 0.00 0.00 0.00 86 1008.8
20260506143403 37 157 2.0 3.0 0.00 0.00 0.00 86 1008.8
20260506142904 37 267 0.0 3.0 0.00 0.00 0.00 87 1008.7
20260506142404 37 222 0.0 5.0 0.00 0.00 0.00 86 1008.7
20260506141904 37 216 0.0 0.0 0.00 0.00 0.00 86 1008.7
20260506141403 37 216 1.0 6.0 0.00 0.00 0.00 87 1008.6
20260506140903 37 182 0.0 2.0 0.00 0.00 0.00 87 1008.6
20260506140404 37 182 0.0 1.0 0.00 0.00 0.00 88 1008.6
20260506135904 37 193 1.0 2.0 0.00 0.00 0.00 88 1008.5
20260506135403 37 202 0.0 0.0 0.00 0.00 0.00 88 1008.5
20260506134904 37 207 0.0 2.0 0.00 0.00 0.00 88 1008.4
20260506134403 38 200 0.0 2.0 0.00 0.00 0.00 88 1008.4
20260506133904 38 200 0.0 0.0 0.00 0.00 0.00 88 1008.4
20260506133404 38 200 0.0 0.0 0.00 0.00 0.00 88 1008.3
20260506132904 38 200 0.0 5.0 0.00 0.00 0.00 88 1008.3
20260506132404 38 228 1.0 2.0 0.00 0.00 0.00 88 1008.2
20260506131904 38 219 0.0 0.0 0.00 0.00 0.00 88 1008.2
20260506131404 38 219 0.0 0.0 0.00 0.00 0.00 88 1008.0
20260506130904 38 219 0.0 0.0 0.00 0.00 0.00 88 1007.9
20260506130403 38 219 0.0 0.0 0.00 0.00 0.00 88 1007.9
20260506125904 38 219 0.0 0.0 0.00 0.00 0.00 88 1007.9
20260506125404 39 219 0.0 0.0 0.00 0.00 0.00 88 1007.8
20260506124903 39 219 0.0 0.0 0.00 0.00 0.00 88 1007.8
20260506124403 39 219 0.0 1.0 0.00 0.00 0.00 88 1007.6
20260506123904 39 224 0.0 1.0 0.00 0.00 0.00 88 1007.6
20260506123403 39 216 0.0 0.0 0.00 0.00 0.00 88 1007.5
20260506122904 39 216 0.0 0.0 0.00 0.00 0.00 88 1007.5
20260506122404 39 216 0.0 0.0 0.00 0.00 0.00 88 1007.5
20260506121903 39 216 0.0 0.0 0.00 0.00 0.00 89 1007.4
20260506121403 39 216 0.0 0.0 0.00 0.00 0.00 89 1007.3
20260506120903 39 216 0.0 0.0 0.00 0.00 0.00 89 1007.3
20260506120404 39 216 0.0 0.0 0.00 0.00 0.00 89 1007.2
20260506115904 39 216 0.0 0.0 0.00 0.00 0.00 88 1007.1
20260506115403 39 216 0.0 0.0 0.00 0.00 0.00 88 1007.1
20260506114904 39 216 0.0 0.0 0.00 0.00 0.00 88 1007.0
20260506114404 39 216 0.0 0.0 0.00 0.00 0.00 88 1007.0
20260506113904 40 216 0.0 0.0 0.00 0.00 0.00 88 1007.0
20260506113403 40 216 0.0 0.0 0.00 0.00 0.00 88 1007.0
20260506112904 40 216 0.0 0.0 0.00 0.00 0.00 88 1006.9
20260506112404 40 216 0.0 0.0 0.00 0.00 0.00 88 1006.8
20260506111904 40 216 0.0 0.0 0.00 0.00 0.00 88 1006.8
20260506111404 40 216 0.0 0.0 0.00 0.00 0.00 88 1006.7
20260506110903 40 216 0.0 0.0 0.00 0.00 0.00 88 1006.6
20260506105904 40 216 0.0 0.0 0.00 0.00 0.00 88 1006.5
20260506105403 40 216 0.0 1.0 0.00 0.00 0.00 88 1006.5
20260506104404 40 185 0.0 0.0 0.00 0.00 0.00 88 1006.3
20260506103904 40 185 1.0 5.0 0.00 0.00 0.00 88 1006.3
20260506103404 40 186 0.0 0.0 0.00 0.00 0.00 87 1006.2
20260506102904 40 186 0.0 0.0 0.00 0.00 0.00 87 1006.2
20260506102403 40 186 0.0 0.0 0.00 0.00 0.00 86 1006.1
20260506101404 40 186 0.0 0.0 0.00 0.00 0.00 86 1006.0
20260506100904 40 186 0.0 1.0 0.00 0.00 0.00 86 1005.8
20260506100404 40 150 0.0 0.0 0.00 0.00 0.00 85 1005.7
20260506095903 41 150 0.0 1.0 0.00 0.00 0.00 85 1005.7
20260506095403 41 188 0.0 0.0 0.00 0.00 0.00 85 1005.6
20260506094904 41 205 0.0 0.0 0.00 0.00 0.00 85 1005.5
20260506094403 41 205 0.0 0.0 0.00 0.00 0.00 84 1005.5
20260506093403 41 205 0.0 0.0 0.00 0.00 0.00 84 1005.4
20260506092904 41 205 0.0 0.0 0.00 0.00 0.00 84 1005.3
20260506092404 42 205 0.0 0.0 0.00 0.00 0.00 84 1005.2
20260506091903 42 205 0.0 0.0 0.00 0.00 0.00 83 1005.2
20260506091403 42 205 0.0 0.0 0.00 0.00 0.00 83 1005.1
20260506090904 42 205 0.0 0.0 0.00 0.00 0.00 83 1005.1
20260506090404 42 205 0.0 0.0 0.00 0.00 0.00 83 1005.0
20260506085404 42 205 0.0 0.0 0.00 0.00 0.00 82 1005.0
20260506084904 42 205 0.0 0.0 0.00 0.00 0.00 82 1004.9
20260506084404 42 205 0.0 0.0 0.00 0.00 0.00 83 1004.9
20260506082903 43 205 0.0 0.0 0.00 0.00 0.00 81 1004.8
20260506081403 43 205 0.0 0.0 0.00 0.00 0.00 80 1004.5
20260506080903 43 205 0.0 0.0 0.00 0.00 0.00 81 1004.4
20260506080403 43 205 0.0 0.0 0.00 0.00 0.00 80 1004.3
20260506073404 44 263 2.0 8.0 0.00 0.00 0.00 80 1004.1
20260506072904 44 281 3.0 9.0 0.00 0.00 0.00 79 1004.1
20260506072404 44 286 2.0 10.0 0.00 0.00 0.00 78 1004.0
20260506071903 44 264 4.0 7.0 0.00 0.00 0.00 78 1004.0
20260506071404 44 253 1.0 6.0 0.00 0.00 0.00 78 1004.0
20260506070903 44 268 3.0 7.0 0.00 0.00 0.00 78 1004.0
20260506070404 44 233 2.0 6.0 0.00 0.00 0.00 78 1004.1
20260506062404 45 262 1.0 5.0 0.00 0.00 0.00 78 1003.9
20260506061903 45 205 0.0 3.0 0.00 0.00 0.00 77 1003.8
20260506061404 45 202 2.0 5.0 0.00 0.00 0.00 77 1003.8
20260506060403 45 294 0.0 2.0 0.00 0.00 0.00 76 1003.5
20260506050904 46 179 1.0 2.0 0.00 0.00 0.00 75 1003.1
20260506050404 46 241 0.0 2.0 0.00 0.00 0.00 76 1003.1
20260506043904 45 233 2.0 7.0 0.00 0.00 0.00 79 1002.9
20260506043404 45 283 3.0 7.0 0.00 0.00 0.00 79 1002.9
20260506042904 45 297 2.0 6.0 0.00 0.00 0.00 79 1002.9
20260506042403 45 283 3.0 6.0 0.00 0.00 0.00 80 1002.9
20260506041904 45 247 2.0 6.0 0.00 0.00 0.00 80 1002.9
20260506041404 45 297 2.0 5.0 0.00 0.00 0.00 80 1003.0
20260506040904 45 223 2.0 9.0 0.00 0.00 0.00 80 1003.0
20260506035903 46 247 3.0 9.0 0.00 0.00 0.00 76 1002.9
20260506035404 46 222 2.0 8.0 0.00 0.00 0.00 73 1002.7
20260506034904 46 231 3.0 8.0 0.00 0.00 0.00 72 1002.6
20260506034404 47 198 3.0 6.0 0.00 0.00 0.00 71 1002.7
20260506033904 47 248 0.0 3.0 0.00 0.00 0.00 70 1002.6
20260506032904 47 226 3.0 7.0 0.00 0.00 0.00 67 1002.5
20260506031904 48 207 2.0 9.0 0.00 0.00 0.00 66 1002.4
20260506031404 48 243 4.0 9.0 0.00 0.00 0.00 65 1002.3
20260506030904 49 244 3.0 10.0 0.00 0.00 0.00 65 1002.3
20260506030404 49 241 3.0 15.0 0.00 0.00 0.00 64 1002.2
20260506025404 50 256 4.0 14.0 0.00 0.00 0.00 64 1002.0